Regional Weather Roundup
Issued by NWS Midland/Odessa, TX

Skip options and go directly to product.
Home | Oldest Version | Next Version | Current Version | All | Text Only | Save Text | Print | Product List | Glossary On

Skip product version selection by date and time.   
032
ASUS44 KMAF 260510
RWRMAF
MIDLAND AREA WEATHER ROUNDUP
NATIONAL WEATHER SERVICE MIDLAND TX
1200 AM CDT TUE MAY 26 2015

...IN SOUTHWEST TEXAS AND SOUTHEAST NEW MEXICO...

CITY           SKY/WX    TMP DP  RH WIND       PRES   REMARKS
ALPINE         CLEAR     56  31  38 SW8       30.09R
ANDREWS        FAIR      63  49  59 S8        29.92S
ARTESIA        MOCLDY    70  45  40 N13G20    29.96R
BIG SPRING     CLEAR     69  56  63 SE14      29.92R
CARLSBAD       PTCLDY    67  34  29 NW8       29.92R
DRYDEN           N/A     69  28  21 VRB6      29.89R
FORT STOCKTON  CLEAR     67  31  26 SW9       29.93R
GUAD PASS      CLEAR     65  24  21 SW13G18   30.06R
HOBBS          CLEAR     57  48  72 CALM      29.93S
MARFA          CLEAR     50  37  62 N7        30.07R
MIDLAND AIRPK  CLEAR     68  56  66 SE6       29.92S
MIDLAND INTL   CLEAR     64  56  75 SE8       29.91R
ODESSA         CLEAR     71  42  35 S6        29.92R
PECOS          CLEAR     63  45  50 CALM      29.91R
PRESIDIO       FAIR      76  24  14 MISG      29.90R
SEMINOLE       CLEAR     60  48  65 S6        29.93R
SNYDER         CLEAR     63  56  80 SE7       29.90S
WINK           CLEAR     66  40  38 SW8       29.89R
$$
...OTHER STATIONS IN TEXAS...

CITY           SKY/WX    TMP DP  RH WIND       PRES   REMARKS
ABILENE        CLEAR     62  58  86 SE8       29.90R
AMARILLO       MOCLDY    55  50  83 SE9       29.92R
AUSTIN         CLOUDY    67  67 100 E5        29.90R
BROWNSVILLE    CLOUDY    81  77  88 S9        29.88R
CORPUS CHRISTI MOCLDY    80  77  90 SE13      29.87R
DALLAS FTW     CLOUDY    60  60 100 S6        29.89R
DEL RIO        CLEAR     76  66  71 NE9       29.84R
EL PASO        CLEAR     77  24  14 NW10G24   29.97R
HOUSTON INT    TSTM      67  66  97 S17       29.95F
LUBBOCK        PTCLDY    59  55  87 SE6       29.90F
SAN ANGELO     CLEAR     65  60  84 S5        29.91R
SAN ANTONIO    CLOUDY    73  67  81 CALM      29.90R
WACO           CLOUDY    66  64  93 SW5       29.91R
WICHITA FALLS  NOT AVBL
$$
...OTHER LOCATIONS IN NEW MEXICO...

CITY           SKY/WX    TMP DP  RH WIND       PRES   REMARKS
ALAMAGORDO     PTCLDY    66  36  32 N9        30.00R
ALBUQUERQUE    PTCLDY    55  48  77 SE3       30.08R
CANNON AFB     MOCLDY    61  45  55 SW10      29.95R
CLOVIS         PTCLDY    63  43  48 W14       29.95S
HOLLOMAN AFB   PTCLDY    68  39  34 N12       29.98R
ROSWELL        PTCLDY    66  42  41 NW12      29.94R
RUIDOSO        PTCLDY    50  37  62 NW5       30.14R
SANTA FE       PTCLDY    50  40  68 CALM      30.09R
TRUTH OR CONSE MOCLDY    64  39  39 NW17G25   30.04R
TUCUMCARI      MOCLDY    60  47  61 W10       29.91R
$$

USA.gov is the U.S. government's official web portal to all federal, state and local government web resources and services.